• In Deutschland
  • Länderverzeichnis
  • Für 7 Tage
  • Wassertemperatur
  • Satellitenkarten
  • Wetterkarte
  • Widgets
  • user-avatar
    Anmelden

    Stündliche Wetter Ludwigsfelde

    Heute, 20 Oktober, Freitag

    Zeit Temperatur Niederschläge Wind Luftdruck Luftfeuchtigkeit
    00:00 +13°C° 0 mm 2 m/S 756 mmHg 80%
    01:00 +13°C° 0 mm 2 m/S 756 mmHg 79%
    02:00 +13°C° 0 mm 2 m/S 756 mmHg 78%
    03:00 +12°C° 0 mm 2 m/S 756 mmHg 78%
    04:00 +12°C° 0 mm 2 m/S 756 mmHg 78%
    05:00 +12°C° 0 mm 2 m/S 756 mmHg 77%
    06:00 +12°C° 0 mm 2 m/S 756 mmHg 77%
    07:00 +12°C° 0 mm 2 m/S 756 mmHg 77%
    08:00 +14°C° 0 mm 2 m/S 756 mmHg 71%
    09:00 +15°C° 0 mm 2 m/S 756 mmHg 65%
    10:00 +17°C° 0 mm 2 m/S 756 mmHg 59%
    11:00 +18°C° 0 mm 2 m/S 756 mmHg 57%
    12:00 +19°C° 0 mm 2 m/S 756 mmHg 55%
    13:00 +20°C° 0 mm 2 m/S 756 mmHg 53%
    14:00 +19°C° 0 mm 2 m/S 756 mmHg 56%
    15:00 +19°C° 0 mm 2 m/S 756 mmHg 60%
    16:00 +18°C° 0 mm 2 m/S 756 mmHg 63%
    17:00 +17°C° 0,4 mm 2 m/S 756 mmHg 70%
    18:00 +16°C° 0,4 mm 2 m/S 756 mmHg 77%
    19:00 +15°C° 0,4 mm 2 m/S 757 mmHg 83%
    20:00 +15°C° 0,1 mm 2 m/S 757 mmHg 85%
    21:00 +14°C° 0,1 mm 3 m/S 757 mmHg 87%
    22:00 +13°C° 0,1 mm 3 m/S 757 mmHg 89%
    23:00 +13°C° 0 mm 3 m/S 757 mmHg 90%

    Morgen, 21 Oktober, Samstag

    Zeit Temperatur Niederschläge Wind Luftdruck Luftfeuchtigkeit
    00:00 +12°C° 0 mm 3 m/S 757 mmHg 90%
    01:00 +11°C° 0 mm 3 m/S 757 mmHg 91%
    02:00 +11°C° 0 mm 3 m/S 757 mmHg 91%
    03:00 +10°C° 0 mm 2 m/S 757 mmHg 92%
    04:00 +10°C° 0 mm 2 m/S 757 mmHg 92%
    05:00 +10°C° 0 mm 2 m/S 757 mmHg 91%
    06:00 +9°C° 0 mm 2 m/S 757 mmHg 91%
    07:00 +9°C° 0 mm 2 m/S 757 mmHg 91%
    08:00 +10°C° 0 mm 2 m/S 757 mmHg 87%
    09:00 +12°C° 0 mm 2 m/S 757 mmHg 83%
    10:00 +13°C° 0 mm 2 m/S 757 mmHg 79%
    11:00 +14°C° 0 mm 2 m/S 757 mmHg 76%
    12:00 +15°C° 0 mm 2 m/S 756 mmHg 73%
    13:00 +16°C° 0 mm 2 m/S 756 mmHg 70%
    14:00 +16°C° 0 mm 2 m/S 756 mmHg 71%
    15:00 +16°C° 0 mm 2 m/S 756 mmHg 73%
    16:00 +16°C° 0 mm 2 m/S 755 mmHg 74%
    17:00 +16°C° 0,3 mm 2 m/S 755 mmHg 77%
    18:00 +15°C° 0,3 mm 2 m/S 755 mmHg 81%
    19:00 +14°C° 0,3 mm 2 m/S 755 mmHg 85%
    20:00 +15°C° 0,3 mm 2 m/S 756 mmHg 86%
    21:00 +14°C° 0,3 mm 3 m/S 756 mmHg 88%
    22:00 +14°C° 0,3 mm 3 m/S 756 mmHg 90%
    23:00 +14°C° 1,8 mm 3 m/S 756 mmHg 90%

    übermorgen, 22 Oktober, Sonntag

    Zeit Temperatur Niederschläge Wind Luftdruck Luftfeuchtigkeit
    00:00 +14°C° 1,8 mm 3 m/S 756 mmHg 91%
    01:00 +14°C° 1,8 mm 3 m/S 756 mmHg 91%
    02:00 +13°C° 0,2 mm 3 m/S 756 mmHg 91%
    03:00 +12°C° 0,2 mm 3 m/S 756 mmHg 90%
    04:00 +12°C° 0,2 mm 3 m/S 756 mmHg 89%
    05:00 +11°C° 0 mm 3 m/S 756 mmHg 89%
    06:00 +11°C° 0 mm 3 m/S 756 mmHg 89%
    07:00 +10°C° 0 mm 3 m/S 756 mmHg 89%
    08:00 +11°C° 0 mm 3 m/S 756 mmHg 84%
    09:00 +12°C° 0 mm 4 m/S 757 mmHg 78%
    10:00 +13°C° 0 mm 4 m/S 757 mmHg 73%
    11:00 +13°C° 0 mm 4 m/S 757 mmHg 70%
    12:00 +13°C° 0 mm 4 m/S 756 mmHg 67%
    13:00 +14°C° 0 mm 4 m/S 756 mmHg 65%
    14:00 +13°C° 0 mm 3 m/S 756 mmHg 66%
    15:00 +13°C° 0 mm 3 m/S 756 mmHg 67%
    16:00 +13°C° 0 mm 2 m/S 756 mmHg 69%
    17:00 +12°C° 0 mm 2 m/S 757 mmHg 71%
    18:00 +12°C° 0 mm 2 m/S 757 mmHg 72%
    19:00 +10°C° 0 mm 2 m/S 757 mmHg 74%
    20:00 +10°C° 0 mm 2 m/S 757 mmHg 75%
    21:00 +9°C° 0 mm 2 m/S 757 mmHg 77%
    22:00 +9°C° 0 mm 2 m/S 757 mmHg 78%
    23:00 +8°C° 0 mm 2 m/S 757 mmHg 80%

    23 Oktober, Montag

    Zeit Temperatur Niederschläge Wind Luftdruck Luftfeuchtigkeit
    00:00 +8°C° 0 mm 2 m/S 757 mmHg 81%
    01:00 +8°C° 0 mm 2 m/S 757 mmHg 83%
    02:00 +7°C° 0 mm 2 m/S 758 mmHg 84%
    03:00 +8°C° 0 mm 1 m/S 758 mmHg 86%
    04:00 +8°C° 0 mm 1 m/S 758 mmHg 87%
    05:00 +7°C° 0 mm 1 m/S 758 mmHg 88%
    06:00 +7°C° 0 mm 1 m/S 758 mmHg 89%
    07:00 +6°C° 0 mm 2 m/S 758 mmHg 90%
    08:00 +7°C° 0 mm 2 m/S 758 mmHg 84%
    09:00 +9°C° 0 mm 2 m/S 758 mmHg 79%
    10:00 +10°C° 0 mm 2 m/S 759 mmHg 74%
    11:00 +12°C° 0 mm 2 m/S 759 mmHg 70%
    12:00 +13°C° 0 mm 1 m/S 759 mmHg 66%
    13:00 +14°C° 0 mm 1 m/S 759 mmHg 62%
    14:00 +13°C° 0 mm 1 m/S 759 mmHg 64%
    15:00 +13°C° 0 mm 1 m/S 759 mmHg 66%
    16:00 +12°C° 0 mm 0 m/S 760 mmHg 68%
    17:00 +11°C° 0 mm 0 m/S 760 mmHg 72%
    18:00 +10°C° 0 mm 0 m/S 760 mmHg 75%
    19:00 +9°C° 0 mm 0 m/S 761 mmHg 79%
    20:00 +9°C° 0 mm 1 m/S 761 mmHg 80%
    21:00 +9°C° 0 mm 1 m/S 761 mmHg 82%
    22:00 +9°C° 0 mm 1 m/S 761 mmHg 83%
    23:00 +9°C° 0 mm 1 m/S 762 mmHg 85%

    24 Oktober, Dienstag

    Zeit Temperatur Niederschläge Wind Luftdruck Luftfeuchtigkeit
    00:00 +9°C° 0 mm 1 m/S 762 mmHg 87%
    01:00 +8°C° 0 mm 1 m/S 762 mmHg 88%
    02:00 +8°C° 0 mm 1 m/S 762 mmHg 90%
    03:00 +8°C° 0 mm 1 m/S 763 mmHg 91%
    04:00 +8°C° 0 mm 1 m/S 763 mmHg 92%
    05:00 +8°C° 0 mm 1 m/S 763 mmHg 93%
    06:00 +8°C° 0 mm 1 m/S 763 mmHg 93%
    07:00 +7°C° 0 mm 1 m/S 763 mmHg 94%
    08:00 +9°C° 0 mm 1 m/S 763 mmHg 89%
    09:00 +11°C° 0 mm 1 m/S 763 mmHg 83%
    10:00 +12°C° 0 mm 1 m/S 764 mmHg 78%
    11:00 +13°C° 0 mm 1 m/S 764 mmHg 73%
    12:00 +14°C° 0 mm 1 m/S 764 mmHg 69%
    13:00 +15°C° 0 mm 1 m/S 764 mmHg 65%
    14:00 +15°C° 0 mm 1 m/S 764 mmHg 67%
    15:00 +13°C° 0 mm 0 m/S 764 mmHg 69%
    16:00 +13°C° 0 mm 0 m/S 764 mmHg 71%
    17:00 +13°C° 0 mm 1 m/S 764 mmHg 75%
    18:00 +12°C° 0 mm 1 m/S 765 mmHg 80%
    19:00 +11°C° 0 mm 1 m/S 765 mmHg 84%
    20:00 +10°C° 0 mm 1 m/S 765 mmHg 86%
    21:00 +10°C° 0 mm 1 m/S 766 mmHg 87%
    22:00 +10°C° 0 mm 1 m/S 766 mmHg 89%
    23:00 +9°C° 0 mm 1 m/S 766 mmHg 90%

    25 Oktober, Mittwoch

    Zeit Temperatur Niederschläge Wind Luftdruck Luftfeuchtigkeit
    00:00 +9°C° 0 mm 1 m/S 766 mmHg 91%
    01:00 +9°C° 0 mm 1 m/S 767 mmHg 92%
    02:00 +9°C° 0 mm 1 m/S 767 mmHg 92%
    03:00 +7°C° 0 mm 2 m/S 767 mmHg 92%
    04:00 +7°C° 0 mm 2 m/S 767 mmHg 93%
    05:00 +7°C° 0 mm 2 m/S 767 mmHg 93%
    06:00 +7°C° 0 mm 2 m/S 767 mmHg 93%
    07:00 +7°C° 0 mm 2 m/S 767 mmHg 93%
    08:00 +8°C° 0 mm 2 m/S 768 mmHg 87%
    09:00 +10°C° 0 mm 3 m/S 768 mmHg 81%
    10:00 +11°C° 0 mm 3 m/S 768 mmHg 75%
    11:00 +12°C° 0 mm 3 m/S 768 mmHg 70%
    12:00 +13°C° 0 mm 3 m/S 768 mmHg 66%
    13:00 +16°C° 0 mm 3 m/S 768 mmHg 61%
    14:00 +14°C° 0 mm 3 m/S 768 mmHg 63%
    15:00 +15°C° 0 mm 2 m/S 768 mmHg 65%
    16:00 +14°C° 0 mm 2 m/S 768 mmHg 68%
    17:00 +14°C° 0 mm 2 m/S 768 mmHg 70%
    18:00 +13°C° 0 mm 2 m/S 768 mmHg 73%
    19:00 +12°C° 0 mm 2 m/S 768 mmHg 75%
    20:00 +10°C° 0 mm 2 m/S 769 mmHg 76%
    21:00 +10°C° 0 mm 2 m/S 769 mmHg 77%
    22:00 +10°C° 0 mm 2 m/S 769 mmHg 78%
    23:00 +10°C° 0 mm 2 m/S 769 mmHg 79%
    Mehr zeigen